STARLINK-2635 (48355 NORAD) Tracking and Keplerian Element Data

This shows tracking and keplerian element data for the satellite.

Feedback or suggestion? Click here.




ElementValue
Catalog48355
NameSTARLINK-2635
Epoch Orbit1380
Epoch Day214.62479126
Epoch Year2021
RAAN343.7144
Inclination53.0574
Eccentricity0.0001652
Argument of Perigee144.671
Mean Anonmoly215.4389
Mean Motion15.0638158
Decay Rate-1.108E-05
L11 48355U 21038C 21214.62479126 -.00001108 00000-0 -55515-4 0 9993
L22 48355 53.0574 343.7144 0001652 144.6710 215.4389 15.06381580 13805

Live tracking and technical data element details for STARLINK-2635 (NORAD 48355). STARLINK-2635 can be tracked NOW for your location showing map with azimuth and elevation plus other details from your city location.

Track the satellite on the map from your city or location and see movement details for azimuth, elevation, latitude, longitude, range, height, and movement on the map or in text.







IsCatalogInMostPopularTable: catalog: 48355, numindb: 34
Update: records affected: 1



GetName: 48355 STARLINK-2635

Hit Count: updated at: Tue, 03 Aug 2021 22:31:21 GMT